TimeEDT,TemperatureF,Dew PointF,Humidity,Sea Level PressureIn,VisibilityMPH,Wind Direction,Wind SpeedMPH,Gust SpeedMPH,PrecipitationIn,Events,Conditions,WindDirDegrees,DateUTC
1:51 AM,41.0,36.0,82,30.32,10.0,Calm,Calm,-,N/A,,Mostly Cloudy,0,2012-10-14 05:51:00
2:51 AM,44.1,39.0,82,30.28,10.0,SSE,4.6,-,N/A,,Mostly Cloudy,160,2012-10-14 06:51:00
3:51 AM,46.0,39.9,79,30.25,10.0,SSW,3.5,-,0.00,,Overcast,200,2012-10-14 07:51:00
4:51 AM,48.0,42.1,80,30.22,10.0,SSE,4.6,-,N/A,,Overcast,150,2012-10-14 08:51:00
5:51 AM,50.0,44.1,80,30.21,10.0,SSW,5.8,-,N/A,,Overcast,200,2012-10-14 09:51:00
6:51 AM,54.0,48.0,80,30.21,10.0,SSW,5.8,-,0.00,Rain,Light Rain,210,2012-10-14 10:51:00
7:51 AM,55.9,48.0,75,30.17,9.0,SSW,13.8,-,0.00,Rain,Light Rain,200,2012-10-14 11:51:00
8:51 AM,55.9,48.9,77,30.17,10.0,SSW,9.2,-,0.00,Rain,Light Rain,200,2012-10-14 12:51:00
9:51 AM,57.9,48.9,72,30.17,10.0,SW,15.0,19.6,0.01,,Overcast,230,2012-10-14 13:51:00
10:51 AM,60.1,48.9,67,30.16,10.0,SW,12.7,26.5,N/A,,Overcast,220,2012-10-14 14:51:00
11:51 AM,62.1,48.9,62,30.14,10.0,SW,16.1,21.9,0.00,,Overcast,230,2012-10-14 15:51:00
12:51 PM,64.0,50.0,60,30.12,10.0,SSW,11.5,23.0,N/A,,Overcast,210,2012-10-14 16:51:00
1:51 PM,66.0,50.0,56,30.09,10.0,SW,17.3,27.6,N/A,,Mostly Cloudy,220,2012-10-14 17:51:00
2:51 PM,68.0,51.1,55,30.06,10.0,SW,15.0,24.2,N/A,,Mostly Cloudy,220,2012-10-14 18:51:00
3:51 PM,68.0,51.1,55,30.05,10.0,SSW,18.4,27.6,N/A,,Scattered Clouds,200,2012-10-14 19:51:00
4:51 PM,66.0,52.0,60,30.05,10.0,SSW,11.5,-,N/A,,Mostly Cloudy,210,2012-10-14 20:51:00
5:51 PM,64.0,52.0,65,30.05,10.0,SSW,9.2,-,N/A,,Mostly Cloudy,210,2012-10-14 21:51:00
6:51 PM,62.1,53.1,72,30.04,10.0,SSW,11.5,-,N/A,,Scattered Clouds,210,2012-10-14 22:51:00
7:51 PM,61.0,55.0,81,30.04,10.0,SSW,10.4,-,N/A,,Scattered Clouds,200,2012-10-14 23:51:00
8:51 PM,62.1,55.9,80,30.03,10.0,SSW,8.1,-,N/A,,Scattered Clouds,200,2012-10-15 00:51:00
9:51 PM,62.1,55.9,80,30.02,10.0,SSW,11.5,-,N/A,,Partly Cloudy,210,2012-10-15 01:51:00
10:51 PM,61.0,55.9,83,30.01,10.0,South,9.2,-,N/A,,Clear,190,2012-10-15 02:51:00
11:51 PM,61.0,55.9,83,29.99,10.0,SSW,9.2,-,N/A,,Partly Cloudy,210,2012-10-15 03:51:00